Regional Weather Roundup
Issued by NWS

Home | Current Version | Previous Version | Text Only | Print | Product List | Glossary On
Versions: 1 2 3 4 5 6 7 8 9 10 11 12 13 14 15 16 17 18 19 20 21 22 23 24 25 26 27 28 29 30 31 32 33 34 35 36 37 38 39 40 41 42 43 44 45 46 47 48 49 50
000
ASUS42 KTBW 200715
RWRFL
FLORIDA REGIONAL WEATHER ROUNDUP
NATIONAL WEATHER SERVICE TAMPA BAY RUSKIN FL
200 AM EST MON NOV 20 2017

NOTE: "FAIR" INDICATES FEW OR NO CLOUDS BELOW 12,000 FEET WITH NO
SIGNIFICANT WEATHER AND/OR OBSTRUCTIONS TO VISIBILITY.

FLZ001>010-012>015-112-114-115-200800-
PANHANDLE FLORIDA

CITY           SKY/WX    TMP DP  RH WIND       PRES   REMARKS
PENSACOLA      CLEAR     47  33  58 N7G21     30.18S WCI  44
PENSACOLA NAS  CLEAR     46  32  58 N8        30.19R WCI  42
MILTON NAS     CLEAR     40  35  83 N5        30.19S WCI  37
CRESTVIEW      PTCLDY    40  34  79 N5        30.19F WCI  37
DUKE FIELD     FAIR      39  33  79 N6        30.17F WCI  35
VALPARAISO     CLEAR     40  33  76 N8        30.17F WCI  35
MARY ESTHER    CLEAR     39  35  84 N9        30.16F WCI  33
PANAMA CITY    FAIR      38  34  85 NW6       30.16S WCI  33
TYNDALL AFB    CLEAR     47  37  68 N6        30.17S WCI  44
APALACHICOLA   CLEAR     46  39  76 N12       30.14F WCI  41

STATION/POSITION SKY/WX   TEMP    WIND        PRES    WAVE   SWELL
                          AIR SEA DIR/SP/G            HT/PER HT/PER
                          (F)     (DEG/KT/KT) (MB)    (FT/S) (FT/S)
29.2N   88.2W              60 78   30/ 17/ 23 1021.7
28.8N   86.0W              62 78   30/ 17/ 21 1019.5F   5/ 6
PANAMA CITY BEAC           45 70  360/  7/ 10 1021.9F
TOWER C                    56      30/ 21/ 24 1020.7R
28.5N   84.5W              64 75   30/ 17/ 21 1018.6F   5/ 6

$$
FLZ011-016>038-118-127-128-134-139-239-200800-
NORTH FLORIDA

CITY           SKY/WX    TMP DP  RH WIND       PRES   REMARKS
MARIANNA       CLEAR     42  34  73 NW5       30.17S WCI  39
TALLAHASSEE    CLEAR     38  34  85 MISG      30.16R
PERRY          PTCLDY    44  37  75 N5        30.15S WCI  41
LIVE OAK       CLEAR     37  37 100 CALM      30.16R FOG
CROSS CITY     CLEAR     35  34  95 CALM      30.17S
LAKE CITY      FAIR      45  34  65 N5        30.13R WCI  42
GAINESVILLE    CLEAR     39  37  92 CALM      30.14S
WILLISTON      CLEAR     45  41  87 CALM      30.12S
PALATKA        FAIR      43  39  87 CALM      30.12R
MAYPORT NAS    CLEAR     53  38  56 N7        30.12R
JACKSONVILLE   CLEAR     49  36  61 N9        30.12R WCI  45
JAX NAS        PTCLDY    54  36  50 N18       30.12R
JAX CECIL      PTCLDY    45  36  70 MISG      30.12R
ST AUGUSTINE   CLEAR     49  38  65 NW9       30.11S WCI  45
PALM COAST     FAIR      51  39  64 N7        30.09S

STATION/POSITION SKY/WX   TEMP    WIND        PRES    WAVE   SWELL
                          AIR SEA DIR/SP/G            HT/PER HT/PER
                          (F)     (DEG/KT/KT) (MB)    (FT/S) (FT/S)
SHELL POINT      NOT AVBL
KEATON BEACH               47      10/  7/  9 1019.8F
CEDAR KEY                  52      20/  6/  9 1019.8F
FERNANDINA                 51 64  320/  6/ 11 1020.8R
30.7N   81.3W                 67                N/A     4/ 5
MAYPORT                    53 66  350/  7/ 10 1020.0R
31.4N   80.9W              57 67  360/ 21/ 23 1019.4R   3/ 4
ST AUGUSTINE               53 67  320/ 10/ 12 1019.4R

$$
FLZ040-043>046-052-053-057-058-063-144-200800-
INTERIOR CENTRAL FLORIDA

CITY           SKY/WX    TMP DP  RH WIND       PRES   REMARKS
OCALA          CLEAR     44  38  79 CALM      30.11S
THE VILLAGES     N/A     52  39  62 MISG      30.00S
LEESBURG       CLEAR     52  41  66 N8        30.10S
SANFORD        CLEAR     55  41  59 N10       30.08R
ORLANDO EXEC   CLEAR     57  40  52 N9        30.07S
ORLANDO INTL   CLEAR     55  39  54 N10       30.07S
KISSIMMEE      CLEAR     57  42  57 N8        30.08S
WINTER HAVEN   CLEAR     55  45  68 N9        30.08S
LAKELAND       CLEAR     54  43  66 N8        30.07S
BARTOW         FAIR      55  45  67 N7        30.07S
SEBRING        FAIR      60  49  67 N9        30.04S
OKEECHOBEE     MOCLDY    63  59  88 N8        30.02S

$$
FLZ041-047-054-059-064-141-147-200800-
EAST CENTRAL FLORIDA

CITY           SKY/WX    TMP DP  RH WIND       PRES   REMARKS
DAYTONA BEACH  PTCLDY    53  43  68 NW10      30.08R
DELAND         CLEAR     52  39  62 N9        30.08S
JFK SPACE CTR  CLEAR     63  53  69 N7        30.04S
CAPE CANAVERAL CLEAR     63  49  61 N12       30.03S
PATRICK AFB    CLEAR     63  54  72 N16G23    30.02S
MELBOURNE      CLEAR     59  51  75 NW7       30.03S
VERO BEACH     MOCLDY    67  56  67 N10       30.02S
FT PIERCE      PTCLDY    67  57  70 N7        30.01S
STUART         PTCLDY    70  61  73 N12G18    30.01S

STATION/POSITION SKY/WX   TEMP    WIND        PRES    WAVE   SWELL
                          AIR SEA DIR/SP/G            HT/PER HT/PER
                          (F)     (DEG/KT/KT) (MB)    (FT/S) (FT/S)
28.5N   80.2W              70 75  360/ 17/ 23 1016.6S   5/ 6
TRIDENT PIER     NOT AVBL
27.5N   80.2W                 75                N/A     5/ 5

$$
FLZ050-056-061-142-242-148-248-149-249-151-251-155-255-
160-260-200800-
WEST CENTRAL FLORIDA

CITY           SKY/WX    TMP DP  RH WIND       PRES   REMARKS
CRYSTAL RIVER  FAIR      46  37  71 CALM      30.10F
INVERNESS      FAIR      46  41  81 N5        30.11S WCI  44
BROOKSVILLE    CLEAR     48  40  73 N7        30.10S WCI  45
CLEARWATER AIR FAIR      54  36  50 NE7       30.08S
ST PETE CLEARW CLEAR     58  44  60 N15G22    30.08S
TAMPA INTL     CLEAR     56  42  59 N7        30.08S
TAMPA EXEC     CLEAR     48  45  87 CALM      30.09S
PLANT CITY     CLEAR     54  45  71 N7        30.09S
MACDILL AFB    CLEAR     54  45  73 NE9       30.07S
PETER O KNIGHT   N/A     54  45  71 NE9       30.08S
ST PETERSBURG  CLEAR     60  48  64 NE18      30.06S
SARASOTA       CLEAR     58  44  60 NE12G21   30.04S
VENICE         FAIR      59  50  72 NE14      30.05S

STATION/POSITION SKY/WX   TEMP    WIND        PRES    WAVE   SWELL
                          AIR SEA DIR/SP/G            HT/PER HT/PER
                          (F)     (DEG/KT/KT) (MB)    (FT/S) (FT/S)
27.3N   84.2W                 77                N/A     6/ 8
CLEARWATER BEACH           59 70   30/ 12/ 17 1018.7S
MIDDLE TAMPA BAY           60      40/ 22/ 26 1018.4S
VENICE                     60 73   20/ 13/ 16 1017.5R

$$
FLZ066-069-070-075>078-162-262-165-265-200800-
SOUTHWEST FLORIDA AND KEYS

CITY           SKY/WX    TMP DP  RH WIND       PRES   REMARKS
PUNTA GORDA    CLEAR     61  54  77 N13       30.04S
FT MYERS       CLOUDY    65  61  87 N14       30.01S
SOUTHWEST INTL CLOUDY    65  63  93 N8        30.01S
NAPLES         CLEAR     67  61  81 N9        29.99S
MARCO ISLAND   CLOUDY    71  67  87 N12       30.00S
IMMOKALEE      FAIR      66  63  88 N5        30.02S
MARATHON       CLEAR     73  66  78 N5        29.97F
KEY WEST NAS   CLEAR     70  70 100 CALM      29.98F
KEY WEST INTL  CLEAR     71  68  90 CALM      29.98F

STATION/POSITION SKY/WX   TEMP    WIND        PRES    WAVE   SWELL
                          AIR SEA DIR/SP/G            HT/PER HT/PER
                          (F)     (DEG/KT/KT) (MB)    (FT/S) (FT/S)
NAPLES                        75  360/  9/ 13 1015.6S
DRY TORTUGAS               75      20/ 20/ 21 1015.1F
SAND KEY                   75                 1015.7F
MOLASSES REEF              73 80  360/ 11/ 13 1015.1F

$$
FLZ067-068-071>074-168-172>174-200800-
SOUTHEAST FLORIDA

CITY           SKY/WX    TMP DP  RH WIND       PRES   REMARKS
W PALM BEACH   PTCLDY    71  65  81 N8        29.99S
FT LAUDER-EXEC CLEAR     69  68  96 NW6       29.98S
FT LAUDERDALE  CLEAR     70  69  97 N7        29.97S
POMPANO BEACH  CLEAR     71  69  93 N8        29.98S
PEMBROKE PINES CLEAR     70  67  90 NW6       29.99F
OPA LOCKA      CLEAR     71  70  96 NW8       29.98F
MIAMI          PTCLDY    72  68  87 CALM      29.98S
WEST KENDALL   FOG       66  66 100 CALM      29.98S VSB 3/4
HOMESTEAD      PTCLDY    67  67 100 NW3       29.97S

STATION/POSITION SKY/WX   TEMP    WIND        PRES    WAVE   SWELL
                          AIR SEA DIR/SP/G            HT/PER HT/PER
                          (F)     (DEG/KT/KT) (MB)    (FT/S) (FT/S)
PORT EVERGLADES            72     320/  8/ 11 1014.8F
VIRGINIA KEY               73 78  310/  3/  5 1014.7F
LAKE WORTH                 71 79  340/  8/ 11 1016.2F
FOWEY ROCKS                73 77  330/ 10/ 10 1015.6F
SETTLEMENT POINT           73      10/  9/ 11 1014.7R

$$




USA.gov is the U.S. government's official web portal to all federal, state and local government web resources and services.